Weather History for New Castle, PA

Change the Weather History Date:

Wednesday, May 29, 2013

  Actual Average Record
Temperature  
Mean Temperature 77 °F -  
Max Temperature 86 °F 75 °F 90 °F (1941)
Min Temperature 68 °F 50 °F 32 °F (1964)
Cooling Degree Days 12    
Growing Degree Days 27 (Base 50)    
Moisture  
Dew Point 60 °F    
Average Humidity 57    
Maximum Humidity 71    
Minimum Humidity 43    
Precipitation  
Precipitation 0.00 in - - ()
Sea Level Pressure  
Sea Level Pressure 30.07 in    
Wind  
Wind Speed 7 mph (SW)    
Max Wind Speed 14 mph    
Max Gust Speed 22 mph    
Visibility 10 miles    
Events      
Averages and records for this station are not official NWS values.
T = Trace of Precipitation, MM = Missing Value Source: NWS Daily Summary

Daily Weather History Graph

Daily Weather History Graph

Search for Another Location

Airport:

Trip Planner

Search our weather history database for the weather conditions in past years. The results will help you decide how hot, cold, wet, or windy it might be!

Date:

Astronomy

May. 29, 2013 Rise Set
Actual Time 5:53 AM EDT 8:45 PM EDT
Civil Twilight 5:20 AM EDT 9:18 PM EDT
Nautical Twilight 4:39 AM EDT 9:59 PM EDT
Astronomical Twilight 3:51 AM EDT 10:47 PM EDT
Moon 12:06 AM EDT (5/29) 10:51 AM EDT (5/29)
Length of Visible Light 15h 57m
Length of Day
14h 52m
Waning Gibbous, 73% of the Moon is Illuminated
May 29
Waning Gibbous
May 31
Last Quarter
Jun 8
New
Jun 16
First Quarter
Jun 23
Full

Hourly Weather History & Observations

Time (EDT) Temp. Heat Index Dew Point Humidity Pressure Visibility Wind Dir Wind Speed Gust Speed Precip Events Conditions
12:56 AM 70.9 °F - 61.0 °F 71% 30.04 in 10.0 mi Variable 4.6 mph - N/A   Clear
1:56 AM 70.9 °F - 61.0 °F 71% 30.04 in 10.0 mi Variable 4.6 mph - N/A   Mostly Cloudy
2:56 AM 70.9 °F - 59.9 °F 68% 30.03 in 10.0 mi SSW 5.8 mph - N/A   Clear
3:56 AM 72.0 °F - 59.0 °F 64% 30.03 in 10.0 mi SW 9.2 mph - N/A   Partly Cloudy
4:56 AM 71.6 °F - 59.0 °F 64% 30.01 in 10.0 mi SW 8.1 mph - N/A   Clear
5:56 AM 68.9 °F - 57.9 °F 68% 30.04 in 10.0 mi SW 9.2 mph - N/A   Clear
6:56 AM 68.9 °F - 57.9 °F 68% 30.07 in 10.0 mi Variable 5.8 mph - N/A   Partly Cloudy
7:56 AM 70.9 °F - 59.0 °F 66% 30.08 in 10.0 mi SW 5.8 mph - N/A   Partly Cloudy
8:56 AM 72.0 °F - 59.9 °F 66% 30.10 in 10.0 mi SW 6.9 mph - N/A   Overcast
9:56 AM 77.9 °F - 61.0 °F 56% 30.09 in 10.0 mi WSW 10.4 mph - N/A   Partly Cloudy
10:56 AM 78.8 °F - 62.6 °F 57% 30.07 in 10.0 mi SW 8.1 mph - N/A   Mostly Cloudy
11:56 AM 79.9 °F - 61.9 °F 54% 30.10 in 10.0 mi Variable 5.8 mph - N/A   Scattered Clouds
12:56 PM 81.9 °F 83.1 °F 63.0 °F 53% 30.09 in 10.0 mi SSW 10.4 mph 16.1 mph N/A   Partly Cloudy
1:56 PM 86.0 °F 87.1 °F 63.9 °F 47% 30.08 in 10.0 mi SW 12.7 mph 19.6 mph N/A   Clear
2:56 PM 86.0 °F 86.8 °F 63.0 °F 46% 30.08 in 10.0 mi WSW 13.8 mph 21.9 mph N/A   Partly Cloudy
3:56 PM 86.0 °F 86.1 °F 61.0 °F 43% 30.08 in 10.0 mi WSW 12.7 mph 18.4 mph N/A   Scattered Clouds
4:56 PM 84.2 °F 84.4 °F 60.8 °F 45% 30.06 in 10.0 mi SW 10.4 mph 17.3 mph N/A   Scattered Clouds
5:56 PM 84.9 °F 85.0 °F 61.0 °F 44% 30.08 in 10.0 mi SW 8.1 mph - N/A   Partly Cloudy
6:56 PM 83.8 °F 84.3 °F 61.9 °F 47% 30.08 in 10.0 mi SW 9.2 mph - N/A   Partly Cloudy
7:56 PM 81.9 °F 82.5 °F 61.0 °F 49% 30.09 in 10.0 mi SW 6.9 mph - N/A   Clear
8:56 PM 77.9 °F - 59.0 °F 52% 30.09 in 10.0 mi SSW 3.5 mph - N/A   Clear
9:56 PM 74.8 °F - 57.9 °F 55% 30.09 in 10.0 mi SSW 4.6 mph - N/A   Clear
10:56 PM 72.9 °F - 56.8 °F 57% 30.10 in 10.0 mi SSW 4.6 mph - N/A   Clear
11:56 PM 70.9 °F - 57.9 °F 63% 30.13 in 10.0 mi Variable 3.5 mph - N/A   Clear